Regional Weather Roundup
Issued by NWS

Home | Current Version | Previous Version | Graphics & Text | Print | Product List | Glossary On
Versions: 1 2 3 4 5 6 7 8 9 10 11 12 13 14 15 16 17 18 19 20 21 22 23 24 25 26 27 28 29 30 31 32 33 34 35 36 37 38 39 40 41 42 43 44 45 46 47 48 49 50
000
ASUS43 KFSD 220002
RWRSD

WEATHER ROUNDUP FOR SOUTH DAKOTA
NATIONAL WEATHER SERVICE SIOUX FALLS SD
700 PM CDT MON MAY 21 2018

NOTE: "FAIR" INDICATES FEW OR NO CLOUDS BELOW 12,000 FEET WITH NO
SIGNIFICANT WEATHER AND/OR OBSTRUCTIONS TO VISIBILITY.


SDZ001>005-009-010-012>017-220100-
NORTHWEST AND NORTH CENTRAL SOUTH DAKOTA

CITY           SKY/WX    TMP DP  RH WIND       PRES   REMARKS
BUFFALO          N/A     75  48  38 S9        29.83S
FAITH            N/A     72  50  45 SE12      29.90F
MOBRIDGE       SUNNY     74  51  44 S7        29.89F
$$

SDZ012>016-024>037-041>051-057-063-072>074-220100-
SOUTHWEST AND SOUTH CENTRAL SOUTH DAKOTA

CITY           SKY/WX    TMP DP  RH WIND       PRES   REMARKS
RAPID CTY ARPT SUNNY     73  51  46 E7        29.90R
PIERRE         SUNNY     74  47  38 S7        29.89F
CUSTER         MOSUNNY   71  38  29 CALM      29.98S
ELLSWORTH AFB  SUNNY     74  52  46 SE6       29.90R
PHILIP         SUNNY     75  54  47 E14       29.87F
PINE RIDGE     SUNNY     74  54  49 S9        29.91S
SPEARFISH      FAIR      72  54  53 E12G17    29.93R
WINNER         FAIR      75  54  47 SE9       29.91F
$$

SDZ004>011-016>023-039-040-220100-
NORTHEAST SOUTH DAKOTA

CITY           SKY/WX    TMP DP  RH WIND       PRES   REMARKS
ABERDEEN       PTSUNNY   70  56  61 SE8       29.94S
WATERTOWN      CLOUDY    61  56  83 CALM      29.97F
BROOKINGS      CLOUDY    63  57  81 SE7       29.98S
SISSETON         N/A     65  57  75 SE9       29.96F
$$

SDZ017-020-022-023-036>040-048>070-220100-
SOUTHEAST SOUTH DAKOTA

CITY           SKY/WX    TMP DP  RH WIND       PRES   REMARKS
SIOUX FALLS    CLOUDY    68  57  68 CALM      29.97F
HURON          SUNNY     69  57  65 E9        29.93F
CHAMBERLAIN    SUNNY     75  51  42 CALM      29.92F
MITCHELL       SUNNY     71  58  63 E9        29.94F
YANKTON        SUNNY     71  58  63 E7        29.95F
$$

ABBREVIATIONS USED IN REMARKS
   TC - TEMPERATURE IN CELSIUS
  WCI - WIND CHILL INDEX
   HX - HEAT INDEX
  VSB - VISIBILITY




USA.gov is the U.S. government's official web portal to all federal, state and local government web resources and services.